Weather History for Vicksburg, MS

Change the Weather History Date:

Saturday, January 18, 2014

  Actual Average Record
Temperature  
Mean Temperature 40 °F 45 °F  
Max Temperature 60 °F 55 °F 78 °F (1950)
Min Temperature 20 °F 35 °F 12 °F (1977)
Degree Days  
Heating Degree Days 25 20  
Month to date heating degree days 406 359  
Since 1 July heating degree days 1531 1296  
Cooling Degree Days 0 0  
Month to date cooling degree days 0 0  
Year to date cooling degree days 0 0  
Moisture  
Dew Point 24 °F    
Average Humidity 55    
Maximum Humidity 92    
Minimum Humidity 18    
Precipitation  
Precipitation 0.00 in 0.17 in 2.18 in (1990)
Month to date precipitation 2.26 2.81  
Year to date precipitation 2.26 2.81  
Sea Level Pressure  
Sea Level Pressure 30.18 in    
Wind  
Wind Speed 8 mph (SSW)    
Max Wind Speed 17 mph    
Max Gust Speed 28 mph    
Visibility 10 miles    
Events      
T = Trace of Precipitation, MM = Missing Value Source: NWS Daily Summary

Daily Weather History Graph

Daily Weather History Graph

Search for Another Location

Airport:

Trip Planner

Search our weather history database for the weather conditions in past years. The results will help you decide how hot, cold, wet, or windy it might be!

Date:

Astronomy

Jan. 18, 2014 Rise Set
Actual Time 7:04 AM CST 5:24 PM CST
Civil Twilight 6:38 AM CST 5:50 PM CST
Nautical Twilight 6:08 AM CST 6:20 PM CST
Astronomical Twilight 5:39 AM CST 6:50 PM CST
Moon 7:55 PM CST (1/18) 8:15 AM CST (1/18)
Length of Visible Light 11h 12m
Length of Day
10h 19m
Waning Gibbous, 94% of the Moon is Illuminated
Jan 18
Waning Gibbous
Jan 23
Last Quarter
Jan 30
New
Feb 6
First Quarter
Feb 14
Full

Hourly Weather History & Observations

Time (CST) Temp. Windchill Dew Point Humidity Pressure Visibility Wind Dir Wind Speed Gust Speed Precip Events Conditions
12:53 AM 26.1 °F - 19.9 °F 78% 30.29 in 10.0 mi Calm Calm - N/A   Clear
1:53 AM 21.9 °F - 19.0 °F 89% 30.30 in 10.0 mi Calm Calm - N/A   Clear
2:53 AM 21.9 °F 15.7 °F 17.1 °F 82% 30.30 in 10.0 mi SSE 4.6 mph - N/A   Clear
3:53 AM 19.9 °F - 18.0 °F 92% 30.28 in 10.0 mi Calm Calm - N/A   Clear
4:53 AM 21.0 °F 14.6 °F 18.0 °F 88% 30.28 in 10.0 mi South 4.6 mph - N/A   Clear
5:53 AM 27.0 °F 21.6 °F 21.9 °F 81% 30.28 in 10.0 mi South 4.6 mph - N/A   Clear
6:53 AM 24.1 °F 18.2 °F 19.9 °F 84% 30.28 in 10.0 mi South 4.6 mph - N/A   Clear
7:53 AM 30.9 °F 27.5 °F 25.0 °F 79% 30.27 in 10.0 mi SSE 3.5 mph - N/A   Clear
8:53 AM 37.9 °F 32.7 °F 24.1 °F 57% 30.28 in 10.0 mi South 6.9 mph - N/A   Clear
9:53 AM 45.0 °F 40.1 °F 21.0 °F 39% 30.28 in 10.0 mi South 9.2 mph - N/A   Clear
10:53 AM 51.1 °F - 19.9 °F 29% 30.25 in 10.0 mi South 9.2 mph - N/A   Clear
11:53 AM 55.0 °F - 12.0 °F 18% 30.20 in 10.0 mi SW 13.8 mph 20.7 mph N/A   Clear
12:53 PM 57.0 °F - 16.0 °F 20% 30.15 in 10.0 mi SW 12.7 mph 27.6 mph N/A   Clear
1:53 PM 59.0 °F - 19.9 °F 22% 30.12 in 10.0 mi SW 12.7 mph 25.3 mph N/A   Clear
2:53 PM 60.1 °F - 23.0 °F 24% 30.09 in 10.0 mi SW 15.0 mph 23.0 mph N/A   Clear
3:53 PM 60.1 °F - 23.0 °F 24% 30.08 in 10.0 mi SW 12.7 mph 23.0 mph N/A   Clear
4:53 PM 57.9 °F - 24.1 °F 27% 30.06 in 10.0 mi SSW 11.5 mph 19.6 mph N/A   Clear
5:53 PM 55.0 °F - 26.1 °F 33% 30.06 in 10.0 mi SSW 10.4 mph 20.7 mph N/A   Clear
6:53 PM 55.0 °F - 28.9 °F 37% 30.06 in 10.0 mi SSW 12.7 mph 25.3 mph N/A   Clear
7:53 PM 54.0 °F - 30.9 °F 41% 30.06 in 10.0 mi SW 13.8 mph 24.2 mph N/A   Clear
8:53 PM 53.1 °F - 33.1 °F 47% 30.07 in 10.0 mi SW 12.7 mph 20.7 mph N/A   Clear
9:53 PM 52.0 °F - 36.0 °F 54% 30.09 in 10.0 mi SW 10.4 mph 19.6 mph N/A   Clear
10:53 PM 51.1 °F - 39.0 °F 63% 30.09 in 10.0 mi SW 8.1 mph - N/A   Clear
11:53 PM 51.1 °F - 41.0 °F 68% 30.09 in 10.0 mi WSW 6.9 mph - N/A   Overcast